Location: Unspecified
(0.0000°N, 0.0000°E)
Time: 20:15:15
(UTC+00:00)

XW-2B - Pass Details

Date: 13 December 2017
Orbit: 510 x 531 km, 97.5° (Epoch: 22 January)

Event Time Altitude Azimuth Distance (km) Brightness Sun altitude
Rises 18:32:08 0° 200° (SSW) 2,622 ? -8.7°
Reaches altitude 10° 18:35:00 10° 224° (SW) 1,736 ? -9.3°
Maximum altitude 18:37:05 15° 259° (WSW) 1,471 ? -9.8°
Drops below altitude 10° 18:39:12 10° 293° (WNW) 1,736 ? -10.3°
Sets 18:42:04 0° 318° (NW) 2,623 ? -10.9°
